Regional Weather Roundup
Issued by NWS

Home | Current Version | Previous Version | Graphics & Text | Print | Product List | Glossary On
Versions: 1 2 3 4 5 6 7 8 9 10 11 12 13 14 15 16 17 18 19 20 21 22 23 24 25 26 27 28 29 30 31 32 33 34 35 36 37 38 39 40 41 42 43 44 45 46 47 48 49 50
000
ASUS43 KIND 230209
RWRIN

WEATHER ROUNDUP FOR INDIANA
NATIONAL WEATHER SERVICE INDIANAPOLIS IN
1000 PM EDT THU JUN 22 2017

NOTE: "FAIR" INDICATES FEW OR NO CLOUDS BELOW 12,000 FEET WITH NO
SIGNIFICANT WEATHER AND/OR OBSTRUCTIONS TO VISIBILITY.

* - STATION DOES NOT REPORT WEATHER SUCH AS PRECIPITATION OR FOG.

+ - STATION NOT QUALITY CONTROLLED BY THE NATIONAL WEATHER SERVICE.
    USE DATA WITH CAUTION...ESPECIALLY DEWPOINT AND RELATIVE
    HUMIDITY OBSERVATIONS.

INZ001>003-010>013-019-020-230300-
NORTHWEST INDIANA

CITY           SKY/WX    TMP DP  RH WIND       PRES   REMARKS
GARY /AIRPORT/ MOCLDY    81  68  65 S14       29.74S
KNOX *+        PTCLDY    75  57  53 SW13G23   29.77S
LA PORTE +     PTCLDY    77  69  74 S9G17     29.77R
MICHIGAN CITY+ CLEAR     77  68  73 S9        29.75S
MONTICELLO +   MOCLDY    74  69  82 S8        29.80S
RENSSELAER +   MOCLDY    73  68  83 S15G23    29.78F
VALPARAISO     MOCLDY    78  70  76 S13       29.77S

$$

LMZ046-743>745-230300-
SOUTHERN LAKE MICHIGAN

STATION/POSITION TIME  TEMP    WIND        PRES    WAVE
                       AIR SEA DIR/SP/G            HT
                 (UTC) (F)     (DEG/KT/KT) (MB)    (FT)
BURNS HARBOR     0140   78     200/ 16/ 24 1007.1S
MICHIGAN CITY    0140   78     180/ 16/ 20   N/A
5NW MICH CITY    0200   76 68  190/ 16/ 21   N/A     2

$$

INZ004-005-014>016-021>024-230300-
NORTH CENTRAL INDIANA

CITY           SKY/WX    TMP DP  RH WIND       PRES   REMARKS
GOSHEN         PTCLDY    76  67  73 S13       29.78F
LOGANSPORT +   CLOUDY    73  68  83 S15       29.82F
PERU/GRISSOM   CLOUDY    75  69  80 S15       29.80S
ROCHESTER +    MOCLDY    77  68  73 S14G20    29.81S
SOUTH BEND     PTCLDY    77  70  79 S12       29.76F
WARSAW +       CLEAR     75  66  73 S9G17     29.80F

$$

INZ006>009-017-018-025>027-230300-
NORTHEAST INDIANA

CITY           SKY/WX    TMP DP  RH WIND       PRES   REMARKS
AUBURN +       CLEAR     77  64  65 S7        29.83S
FORT WAYNE     MOCLDY    76  66  71 S14       29.83S
HUNTINGTON +   MOCLDY    75  68  77 SW8G17    29.83S
KENDALLVILLE + PTCLDY    76  67  73 S13G22    29.81F

$$

INZ028-029-035-036-043>045-051>053-230300-
WEST CENTRAL INDIANA

CITY           SKY/WX    TMP DP  RH WIND       PRES   REMARKS
CRAWFORDSVL +  CLOUDY    71  70  96 S12       29.82F
GREENCASTLE +  CLOUDY    70  68  94 S9        29.83F
LAFAYETTE      CLOUDY    74  69  85 S8        29.80S
TERRE HAUTE    CLOUDY    73  70  90 S8        29.81F

$$

INZ030>032-037>040-046>048-054>057-064-065-230300-
CENTRAL INDIANA

CITY           SKY/WX    TMP DP  RH WIND       PRES   REMARKS
CP ATTERBURY + CLOUDY    72  68  88 S9        29.86F
COLUMBUS       CLOUDY    72  68  88 S9G16     29.87S
FRANKFORT +    CLOUDY    76  70  81 S7        29.84F
INDIANAPOLIS   LGT RAIN  72  69  90 S12       29.83F
-EAGLE CREEK   CLOUDY    73  68  84 S7        29.83F
KOKOMO +       CLOUDY    75  68  78 S12       29.84S
MARION +       CLOUDY    73  66  78 S15       29.85R
MT COMFORT *+  CLOUDY    72  68  88 S10G18    29.86S
SHELBYVILLE    CLOUDY    74  67  78 S15       29.84F
ZIONSVILLE +   CLOUDY    73  67  82 S13       29.85S

$$

INZ033-034-041-042-049-050-058-059-230300-
EAST CENTRAL INDIANA

CITY           SKY/WX    TMP DP  RH WIND       PRES   REMARKS
MUNCIE         CLOUDY    76  67  73 S12       29.85S
RICHMOND +     CLOUDY    70  68  94 S10       29.91S

$$

INZ060-061-067>069-081>083-085>088-230300-
SOUTHWEST INDIANA

CITY           SKY/WX    TMP DP  RH WIND       PRES   REMARKS
EVANSVILLE     MOCLDY    74  72  93 SE6       29.82S
HUNTINGBURG *+ CLOUDY    73  72  96 SE7       29.84S
WASHINGTON +   CLOUDY    72  70  93 SE9       29.82S

$$

INZ062-063-066-070>080-084-089>092-230300-
SOUTH CENTRAL AND SOUTHEAST INDIANA

CITY           SKY/WX    TMP DP  RH WIND       PRES   REMARKS
BEDFORD +      CLOUDY    70  66  88 SE8       29.84F
BLOOMINGTON    CLOUDY    72  68  87 S13       29.84F
MADISON *+     CLOUDY    70  68  94 SE8       29.91S
NORTH VERNON + RAIN      70  68  94 S7        29.88S
SEYMOUR +      DRIZZLE   72  72 100 S8        29.86F

$$





USA.gov is the U.S. government's official web portal to all federal, state and local government web resources and services.